When you browse on this site, cookies collect data to enhance your experience and personalize the content and advertising you see.
Visit our Privacy Policy to learn more. By continuing to use the site, you agree to this use of cookies and data.
  • In Germany
  • List of Countries
  • For 7 days
  • Water Temperature
  • Satellite Maps
  • Weather Map
  • Weather Widgets
  • user-avatar
    Login

    Hourly Weather Tirana

    Today, 26 March, Tuesday

    Time Temperature Precipitation Wind Pressure Humidity
    00:00 +12°C° 0 mm 3 mps 749 mmHg 65%
    01:00 +12°C° 0 mm 3 mps 749 mmHg 64%
    02:00 +11°C° 0 mm 3 mps 749 mmHg 63%
    03:00 +12°C° 0 mm 2 mps 749 mmHg 62%
    04:00 +12°C° 0 mm 2 mps 749 mmHg 61%
    05:00 +13°C° 0 mm 2 mps 749 mmHg 61%
    06:00 +13°C° 0 mm 2 mps 749 mmHg 60%
    07:00 +14°C° 0 mm 2 mps 749 mmHg 59%
    08:00 +16°C° 0 mm 2 mps 750 mmHg 53%
    09:00 +18°C° 0 mm 2 mps 750 mmHg 48%
    10:00 +19°C° 0 mm 2 mps 750 mmHg 42%
    11:00 +20°C° 0 mm 3 mps 750 mmHg 41%
    12:00 +20°C° 0 mm 4 mps 750 mmHg 40%
    13:00 +21°C° 0 mm 5 mps 750 mmHg 39%
    14:00 +21°C° 0 mm 5 mps 750 mmHg 39%
    15:00 +20°C° 0 mm 5 mps 750 mmHg 40%
    16:00 +20°C° 0 mm 5 mps 750 mmHg 41%
    17:00 +18°C° 0.1 mm 4 mps 751 mmHg 46%
    18:00 +17°C° 0.1 mm 4 mps 752 mmHg 51%
    19:00 +14°C° 0.1 mm 4 mps 752 mmHg 56%
    20:00 +13°C° 0.1 mm 4 mps 753 mmHg 56%
    21:00 +13°C° 0.1 mm 4 mps 753 mmHg 56%
    22:00 +12°C° 0.1 mm 4 mps 754 mmHg 55%
    23:00 +12°C° 0.1 mm 4 mps 754 mmHg 55%

    Tomorrow, 27 March, Wednesday

    Time Temperature Precipitation Wind Pressure Humidity
    00:00 +10°C° 0.1 mm 5 mps 755 mmHg 54%
    01:00 +10°C° 0.1 mm 5 mps 755 mmHg 54%
    02:00 +10°C° 0.1 mm 5 mps 755 mmHg 54%
    03:00 +9°C° 0.1 mm 5 mps 755 mmHg 54%
    04:00 +10°C° 0.1 mm 4 mps 755 mmHg 54%
    05:00 +10°C° 0.1 mm 4 mps 755 mmHg 53%
    06:00 +11°C° 0.1 mm 4 mps 756 mmHg 52%
    07:00 +11°C° 0.1 mm 4 mps 756 mmHg 51%
    08:00 +13°C° 0 mm 4 mps 756 mmHg 45%
    09:00 +15°C° 0 mm 4 mps 756 mmHg 39%
    10:00 +18°C° 0 mm 4 mps 756 mmHg 34%
    11:00 +19°C° 0 mm 4 mps 756 mmHg 33%
    12:00 +20°C° 0 mm 4 mps 756 mmHg 32%
    13:00 +20°C° 0 mm 3 mps 756 mmHg 31%
    14:00 +20°C° 0 mm 4 mps 756 mmHg 31%
    15:00 +20°C° 0 mm 4 mps 756 mmHg 32%
    16:00 +20°C° 0 mm 5 mps 756 mmHg 33%
    17:00 +17°C° 0 mm 5 mps 756 mmHg 42%
    18:00 +15°C° 0 mm 4 mps 756 mmHg 51%
    19:00 +13°C° 0 mm 4 mps 757 mmHg 60%
    20:00 +13°C° 0 mm 3 mps 757 mmHg 62%
    21:00 +12°C° 0 mm 3 mps 757 mmHg 64%
    22:00 +13°C° 0 mm 2 mps 758 mmHg 65%
    23:00 +11°C° 0 mm 3 mps 758 mmHg 59%

    Day after tomorrow, 28 March, Thursday

    Time Temperature Precipitation Wind Pressure Humidity
    00:00 +11°C° 0 mm 4 mps 758 mmHg 52%
    01:00 +9°C° 0 mm 5 mps 758 mmHg 46%
    02:00 +9°C° 0 mm 5 mps 758 mmHg 46%
    03:00 +9°C° 0 mm 5 mps 758 mmHg 45%
    04:00 +8°C° 0 mm 5 mps 758 mmHg 45%
    05:00 +9°C° 0 mm 5 mps 758 mmHg 45%
    06:00 +9°C° 0 mm 5 mps 758 mmHg 45%
    07:00 +9°C° 0 mm 5 mps 758 mmHg 45%
    08:00 +12°C° 0 mm 5 mps 758 mmHg 41%
    09:00 +14°C° 0 mm 5 mps 758 mmHg 36%
    10:00 +17°C° 0 mm 4 mps 758 mmHg 31%
    11:00 +18°C° 0 mm 4 mps 758 mmHg 30%
    12:00 +19°C° 0 mm 4 mps 758 mmHg 29%
    13:00 +20°C° 0 mm 4 mps 758 mmHg 28%
    14:00 +19°C° 0 mm 5 mps 758 mmHg 29%
    15:00 +19°C° 0 mm 5 mps 757 mmHg 30%
    16:00 +19°C° 0 mm 5 mps 757 mmHg 31%
    17:00 +17°C° 0 mm 5 mps 757 mmHg 34%
    18:00 +15°C° 0 mm 5 mps 758 mmHg 38%
    19:00 +13°C° 0 mm 5 mps 758 mmHg 41%
    20:00 +12°C° 0 mm 5 mps 759 mmHg 43%
    21:00 +10°C° 0 mm 5 mps 759 mmHg 44%
    22:00 +9°C° 0 mm 5 mps 760 mmHg 46%
    23:00 +9°C° 0 mm 5 mps 760 mmHg 47%

    29 March, Friday

    Time Temperature Precipitation Wind Pressure Humidity
    00:00 +8°C° 0 mm 5 mps 760 mmHg 48%
    01:00 +8°C° 0 mm 5 mps 760 mmHg 49%
    02:00 +7°C° 0 mm 5 mps 760 mmHg 50%
    03:00 +7°C° 0 mm 5 mps 760 mmHg 51%
    04:00 +7°C° 0 mm 5 mps 760 mmHg 52%
    05:00 +7°C° 0 mm 5 mps 760 mmHg 52%
    06:00 +8°C° 0 mm 5 mps 761 mmHg 51%
    07:00 +9°C° 0 mm 5 mps 761 mmHg 51%
    08:00 +12°C° 0 mm 5 mps 761 mmHg 43%
    09:00 +13°C° 0 mm 5 mps 761 mmHg 36%
    10:00 +15°C° 0 mm 4 mps 761 mmHg 28%
    11:00 +16°C° 0 mm 5 mps 760 mmHg 27%
    12:00 +17°C° 0 mm 5 mps 760 mmHg 25%
    13:00 +19°C° 0 mm 5 mps 760 mmHg 24%
    14:00 +19°C° 0 mm 6 mps 759 mmHg 26%
    15:00 +18°C° 0 mm 7 mps 759 mmHg 28%
    16:00 +18°C° 0 mm 8 mps 759 mmHg 30%
    17:00 +16°C° 0 mm 8 mps 759 mmHg 36%
    18:00 +13°C° 0 mm 8 mps 760 mmHg 43%
    19:00 +12°C° 0 mm 9 mps 760 mmHg 50%
    20:00 +11°C° 0 mm 8 mps 760 mmHg 48%
    21:00 +10°C° 0 mm 7 mps 760 mmHg 47%
    22:00 +9°C° 0 mm 6 mps 761 mmHg 46%
    23:00 +9°C° 0 mm 6 mps 761 mmHg 47%

    30 March, Saturday

    Time Temperature Precipitation Wind Pressure Humidity
    00:00 +8°C° 0 mm 6 mps 761 mmHg 48%
    01:00 +8°C° 0 mm 5 mps 761 mmHg 50%
    02:00 +8°C° 0 mm 5 mps 761 mmHg 52%
    03:00 +7°C° 0 mm 5 mps 761 mmHg 53%
    04:00 +7°C° 0 mm 4 mps 761 mmHg 55%
    05:00 +8°C° 0 mm 4 mps 761 mmHg 55%
    06:00 +10°C° 0 mm 4 mps 761 mmHg 55%
    07:00 +10°C° 0 mm 4 mps 761 mmHg 55%
    08:00 +12°C° 0 mm 4 mps 760 mmHg 49%
    09:00 +14°C° 0 mm 4 mps 760 mmHg 42%
    10:00 +17°C° 0 mm 3 mps 760 mmHg 36%
    11:00 +18°C° 0 mm 4 mps 759 mmHg 35%
    12:00 +19°C° 0 mm 5 mps 759 mmHg 33%
    13:00 +20°C° 0 mm 6 mps 758 mmHg 32%
    14:00 +18°C° 0 mm 7 mps 758 mmHg 37%
    15:00 +17°C° 0 mm 8 mps 757 mmHg 42%
    16:00 +16°C° 0 mm 9 mps 757 mmHg 48%
    17:00 +15°C° 0 mm 8 mps 757 mmHg 55%
    18:00 +12°C° 0 mm 8 mps 757 mmHg 62%
    19:00 +11°C° 0 mm 7 mps 757 mmHg 69%
    20:00 +10°C° 0 mm 6 mps 757 mmHg 68%
    21:00 +10°C° 0 mm 5 mps 757 mmHg 68%
    22:00 +11°C° 0 mm 4 mps 757 mmHg 68%
    23:00 +10°C° 0 mm 4 mps 756 mmHg 65%

    31 March, Sunday

    Time Temperature Precipitation Wind Pressure Humidity
    00:00 +10°C° 0 mm 3 mps 756 mmHg 63%
    01:00 +10°C° 0 mm 2 mps 755 mmHg 60%
    02:00 +9°C° 0 mm 2 mps 755 mmHg 59%
    03:00 +9°C° 0 mm 2 mps 755 mmHg 59%
    04:00 +9°C° 0 mm 2 mps 755 mmHg 58%
    05:00 +10°C° 0 mm 2 mps 754 mmHg 56%
    06:00 +12°C° 0 mm 1 mps 754 mmHg 55%
    07:00 +12°C° 0 mm 1 mps 754 mmHg 54%
    08:00 +14°C° 0 mm 2 mps 754 mmHg 49%
    09:00 +16°C° 0 mm 2 mps 754 mmHg 43%
    10:00 +18°C° 0 mm 2 mps 754 mmHg 38%
    11:00 +19°C° 0 mm 3 mps 753 mmHg 38%
    12:00 +19°C° 0 mm 4 mps 753 mmHg 38%
    13:00 +20°C° 0 mm 5 mps 752 mmHg 38%
    14:00 +19°C° 0 mm 5 mps 752 mmHg 42%
    15:00 +17°C° 0 mm 5 mps 751 mmHg 46%
    16:00 +16°C° 0 mm 5 mps 751 mmHg 50%
    17:00 +15°C° 0 mm 5 mps 751 mmHg 60%
    18:00 +13°C° 0 mm 4 mps 752 mmHg 71%
    19:00 +11°C° 0 mm 3 mps 752 mmHg 82%
    20:00 +11°C° 0 mm 3 mps 752 mmHg 83%
    21:00 +12°C° 0 mm 2 mps 753 mmHg 84%
    22:00 +12°C° 0 mm 1 mps 753 mmHg 85%
    23:00 +11°C° 0 mm 1 mps 753 mmHg 83%
    Show more